Regional Weather Roundup
Issued by NWS Wilmington, NC

Current Version | Previous Version | Text Only | Print | Product List | Glossary On
Versions: 1 2 3 4 5 6 7 8 9 10 11 12 13 14 15 16 17 18 19 20 21 22 23 24 25 26 27 28 29 30 31 32 33 34 35 36 37 38 39 40 41 42 43 44 45 46 47 48 49 50
000 ASUS42 KILM 210212 RWRILM RWRILM REGIONAL HOURLY WEATHER ROUNDUP NATIONAL WEATHER SERVICE WILMINGTON NC 1000 PM EDT TUE APR 20 2021 NOTE: "FAIR" INDICATES FEW OR NO CLOUDS BELOW 12,000 FEET WITH NO SIGNIFICANT WEATHER AND/OR OBSTRUCTIONS TO VISIBILITY. ...............WFO WILMINGTON COUNTY WARNING AREA............... ......COASTAL NC AND SC COUNTIES...... CITY SKY/WX TMP DP RH WIND PRES REMARKS WILMINGTON PTCLDY 58 51 78 CALM 29.99R N MYRTLE BEACH CLEAR 65 56 72 VRB3 29.97S MYRTLE BEACH PTCLDY 66 59 78 E5 29.98S ......INLAND NC AND SC COUNTIES....... CITY SKY/WX TMP DP RH WIND PRES REMARKS LUMBERTON NOT AVBL ELIZABETHTOWN CLEAR 58 46 62 S3 29.99S WHITEVILLE CLEAR 57 49 74 CALM 30.00S FLORENCE CLEAR 60 48 64 SE3 29.98R DARLINGTON CLEAR 60 48 64 SE7 29.98R KINGSTREE FAIR 59 50 72 CALM 29.98R HARTSVILLE MOCLDY 61 46 59 CALM 29.98R BENNETTSVILLE FAIR 61 50 67 SE3 29.97S CONWAY FAIR 55 50 82 CALM 29.99R GEORGETOWN FAIR 61 55 82 CALM 29.98S MARION FAIR 55 50 82 CALM 29.99R ....................REST OF NORTH CAROLINA...................... .........EASTERN NC......... CITY SKY/WX TMP DP RH WIND PRES REMARKS CAPE HATTERAS MOCLDY 60 54 80 N3 30.01S JACKSONVILLE PTCLDY 58 46 64 SE3 30.00S MOREHEAD CITY MOCLDY 66 52 60 SE3 29.99F KENANSVILLE PTCLDY 52 46 82 CALM 30.00R NEW BERN MOCLDY 58 47 66 CALM 30.01S ELIZABETH CITY MOCLDY 62 44 51 S5 30.00R .........CENTRAL NC......... CITY SKY/WX TMP DP RH WIND PRES REMARKS RALEIGH DURHAM CLEAR 63 41 44 S7 29.96R ROCKY MOUNT PTCLDY 62 39 42 S6 29.97R ROANOKE RAPIDS NOT AVBL FAYETTEVILLE CLEAR 61 44 53 S5 29.97S HOFFMAN CLEAR 61 45 56 S9 29.96S .........WESTERN NC......... CITY SKY/WX TMP DP RH WIND PRES REMARKS CHARLOTTE CLEAR 63 45 51 S13 29.94R GREENSBORO CLEAR 60 41 49 S7 29.92R HICKORY NOT AVBL BOONE NOT AVBL ASHEVILLE NOT AVBL .....................REST OF SOUTH CAROLINA..................... .........EASTERN SC......... CITY SKY/WX TMP DP RH WIND PRES REMARKS CHARLESTON CLEAR 64 56 75 CALM 29.97R BEAUFORT MCAS CLEAR 65 61 87 CALM 29.96R HILTON HEAD PTCLDY 66 63 88 CALM 29.97R .........CENTRAL SC......... CITY SKY/WX TMP DP RH WIND PRES REMARKS COLUMBIA MOCLDY 64 47 53 CALM 29.95S ORANGEBURG CLEAR 62 49 62 SE3 29.96S SUMTER SHAW CLEAR 59 47 63 CALM 29.96R .........WESTERN SC......... CITY SKY/WX TMP DP RH WIND PRES REMARKS GREENVILLE NOT AVBL ROCK HILL CLEAR 62 45 53 S7 29.95R ANDERSON CLEAR 61 48 62 S5 29.93R CLEMSON NOT AVBL GREENWOOD CLEAR 59 50 72 S6 29.96R ...................COASTAL AND OFFSHORE REPORTS.................. ................LOCAL PIERS AND NC RESERVE................ STATION/POSITION TIME SKY/WX TEMP WIND PRES VSBY AIR SEA DIR/SP/G (UTC) (F) (DEG/KT/KT) (MB) (MI) JOHNY MRCER PIER 0124 66 67 100/ 7/ 10 1015.1 NC RESRV MASNBRO 0045 64 140/ 4 N/A OCEAN CREST PIER NOT AVBL SPRINGMAID PIER 0124 66 N/A ................COASTAL AND OFFSHORE BUOYS................ STATION/POSITION TIME SKY/WX TEMP WIND PRES VSBY AIR SEA DIR/SP/G (UTC) (F) (DEG/KT/KT) (MB) (MI) DIMNDSHOAL 41025 NOT AVBL CAPE LOOKOUT 0200 67 150/ 5/ 5 1016.1F ONSLOW BAY 41036 NOT AVBL ONSLOW BAY 41064 NOT AVBL ONSLOW BAY 41159 0126 66 N/A WVE H/P(F/S)= 3/ 7 MASNBO INL 41110 0137 65 N/A WVE H/P(F/S)= 2/ 7 WILM HARBR 41108 0130 67 N/A WVE H/P(F/S)= 2/ 6 27SE WRITB 41037 0108 69 67 140/ 8/ 12 1014.9F FRYING PAN 41013 0150 68 160/ 10/ 12 1014.5R WVE H/P(F/S)= 3/ 6 SWL H/P/D(F/S/D)= 2/130/ 6 SUNST NRSH 41024 0108 67 67 110/ 8/ 12 1016.3R CAPRS NRSH 41029 0138 68 67 130/ 4/ 6 1014.3R EDISTO 41004 NOT AVBL ..........OFFSHORE BUOYS BEYOND 100 NM OFFSHORE........... .....IN A TRIANGLE---HAT TO BERMUDA TO BAHAMAS TO HAT..... STATION/POSITION TIME SKY/WX TEMP WIND PRES VSBY AIR SEA DIR/SP/G (UTC) (F) (DEG/KT/KT) (MB) (MI) 150E HAT 41001 NOT AVBL W BERMUDA 41048 0150 67 70 170/ 12/ 16 1020.2F WVE H/P(F/S)= 4/ 6 SWL H/P/D(F/S/D)= 3/280/ 6 ATLANTIC S 41049 0150 75 CALM / 2 N/A WVE H/P(F/S)= 4/ 9 SWL H/P/D(F/S/D)= 3/130/ 9 E BAHAMAS 41046 0150 78 78 130/ 6/ 8 1020.9R WVE H/P(F/S)= 4/ 8 SWL H/P/D(F/S/D)= 3/120/ 8 NE BAHAMAS 41047 NOT AVBL 120E CANVRL41010 0150 75 210/ 12/ 14 1014.5R WVE H/P(F/S)= 4/ 6 SWL H/P/D(F/S/D)= 2/230/ 6 END

USA.gov is the U.S. government's official web portal to all federal, state and local government web resources and services.